Location: ?????? ??????
(44.3742°N, 135.2221°E)
Time: 01:17:54
(UTC+00:00)

Cosmos 2333 Rocket - Pass Details

Date: 19 May 2025
Orbit: 840 x 862 km, 70.8° (Epoch: 13 June)

Event Time Altitude Azimuth Distance (km) Brightness Sun altitude
Rises 13:35:30 0° 341° (NNW) 3,439 6.9 -23.2°
Reaches altitude 10° 13:38:23 10° 354° (N) 2,496 5.7 -23.3°
Maximum altitude 13:43:10 27° 50° (NE) 1,599 3.8 -23.6°
Enters shadow 13:45:58 18° 91° (E) 1,945 3.9 -23.8°
